Terminal Aerodrome Forecast
Issued by NWS Wakefield, VA

Home | Current Version | Previous Version | Text Only | Print | Product List | Glossary On
Versions: 1 2 3 4 5 6 7 8 9 10 11 12 13 14 15 16 17 18 19 20 21 22 23 24 25 26 27 28 29
215
FTUS41 KAKQ 051501 AAB
TAFORF
TAF AMD
KORF 051501Z 0515/0612 05014G23KT P6SM OVC008
     FM052000 04011KT 5SM -SHRA OVC009
     FM060400 03006KT 4SM -SHRA BR OVC005=

USA.gov is the U.S. government's official web portal to all federal, state and local government web resources and services.